Simultaneous Nadir Overpasses (SNOs) Predictions

Prediction of SNOs between GOES-17 and NOAA-19 Satellite Orbit:

Table of predicted SNOs for the next 14.0 days since TLE Epoch: 5/14/2022
Index Date Time (GOES-17) GOES-17 Lat,Lon NOAA-19 Lat,Lon Distance(km) Time Diff (sec)
1 05/14/2022 05:00:46 -0.05,-137.20 -0.46,-139.09 215.86 80
2 05/15/2022 04:46:17 -0.04,-137.20 0.21,-136.21 113.55 80
3 05/16/2022 04:34:26 -0.04,-137.20 0.84,-133.31 442.56 80
4 05/17/2022 17:06:56 0.04,-137.19 0.92,-141.10 445.52 80
5 05/18/2022 16:55:05 0.03,-137.19 0.29,-138.21 117.16 80
6 05/19/2022 16:45:56 0.03,-137.18 -0.39,-135.33 211.12 80
7 05/22/2022 05:06:32 -0.02,-137.14 -0.72,-140.21 350.09 80
8 05/23/2022 04:54:43 -0.02,-137.13 -0.03,-137.33 22.15 80
9 05/24/2022 04:40:13 -0.01,-137.12 0.60,-134.44 306.21 80
10 05/26/2022 17:00:50 0.01,-137.09 0.55,-139.32 254.79 80
11 05/27/2022 16:51:41 0.01,-137.08 -0.15,-136.44 73.14 80
